Find NORSAT-2

NORAD ID: 42828 Int'l Des: 2017-042 Owner: STATS Country: N operational
LEOCIRCULARRETROGRADESSO

当前视图

正在加载3D地球...

关于 NORSAT-2

正在加载描述...

即将过境

Passes for default location (London). Set your location on the main map for personalized predictions.

高度历史

Loading altitude history...

两行轨道根数

1 42828U 17042D 26146.26162661 .00010994 00000-0 49179-3 0 9993
2 42828 97.4029 320.0603 0010988 125.4274 234.7989 15.21414405484401
Epoch: May 26, 2026 • Age: 10 hours

当前状态

高度 506.0 km
速度 7.62 km/s
星下点 68.17°N, 31.52°E
发射日期 Jul 14, 2017
运行时间 8.8 years
类型 other

技术详情

分类 Payload
质量 30.00 kg
干质量 30.00 kg
总质量 30.00 kg
长度 0.40 m
直径 0.20 m
跨度 0.92 m
形状 Box +2 pan+4 ant
制造商 UTIAS
平台类型 GNB
阶段状态 In Orbit
所有者/国家 STATS/N

Most Searched